SCP
0 0 0 0 0 0 0 0 0 0 0 0 0 0 0 0 0 0 0 0 0 0 0 0 0 0 0 0 0 0 0 0 0 0 0 0 0 0
0 0 0 0 0 0 0 0 0 0 0 0 0 0 0 0 0 0 0 0 0 0 0 0 0 0 0 0 0 0 0 0 0 0 0 0 0 0
0 0 0 0 0 0 0 0 0 0 0 0 0 0 0 0 0 0 0 0 0 0 0 0 0 0 0 0 0 0 0 0 0 0 0 0 0 0
0 0 0 0 0 0 0 0 0 0 0 0 0 0 0 0 0 0 0 0 0 0 0 0 0 0 0 0 0 0 0 0 0 0 0 0 0 0
0 0 0 0 0 0 0 0 0 0 0 0 0 0 0 0 0 0 0 0 0 0 0 0 0 0 0 0 0 0 0 0 0 0 0 0 0 0
0 0 0 0 0 0 0 0 0 0 0 0 0 0 0 0 0 0 0 0 0 0 0 0 0 0 0 0 0 0 0 0 0 0 0 0 0 0
0 0 0 0 0 0 0 0 0 0 0 0 0 0 0 0 0 0 0 0 0 0 0 0 0 0 0 0 0 0 0 0 0 0 0 0 0 0
0 0 0 0 0 0 0 0 0 0 0 0 0 0 0 0 0 0 0 0 0 0 0 0 0 0 0 0 0 0 0 0 0 0 0 0 0 0
0 0 0 0 0 0 0 0 0 0 0 0 0 0 0 0 0 0 0 0 0 0 0 0 0 0 0 0 0 0 0 0 0 0 0 0 0 0
0 0 0 0 0 0 0 0 0 0 0 0 0 0 0 0 0 0 0 0 0 0 0 0 0 0 0 0 0 -0 -0 0 0 0 0 0 0 0
0 0 0 0 0 0 0 0 0 0 0 0 0 0 0 0 0 0 0 0 0 0 0 0 0 0 0 0 0 -0 -0 0 0 0 0 0 0 0
0 0 0 0 0 0 0 0 0 0 0 0 0 0 0 0 0 0 0 0 0 0 0 0 0 0 0 0 0 0 0 0 0 0 0 0 0 0
0 0 0 0 0 0 0 0 0 0 0 0 0 0 0 0 0 0 0 0 0 0 0 0 0 0 0 0 0 0 0 0 0 0 0 0 0 0
0 0 0 0 0 0 0 0 0 0 0 0 0 0 0 0 0 0 0 0 0 0 0 0 0 0 0 0 0 0 0 0 0 0 0 0 0 0
0 0 0 0 0 0 0 0 0 0 0 0 0 0 0 0 0 0 0 0 0 0 0 0 0 0 0 0 0 0 0 0 0 0 0 0 0 -0
0 0 0 0 0 0 0 0 0 0 0 0 0 0 0 0 0 0 0 0 0 0 0 0 0 0 0 0 0 0 0 0 0 0 0 -0 -0 -0
0 0 0 0 0 0 0 0 0 0 0 0 0 0 0 0 0 0 0 0 0 0 0 0 0 0 0 0 0 0 0 0 0 0 0 0 0 -0
0 0 0 0 0 0 0 0 0 0 0 0 0 0 0 0 0 0 0 0 0 0 0 0 0 0 0 0 0 0 0 0 0 0 0 0 0 0
0 0 0 0 0 0 0 0 0 0 0 0 0 0 0 0 0 0 0 0 0 0 0 0 0 0 0 0 0 0 0 0 0 0 0 0 0 0
0 0 0 0 0 0 0 0 0 0 0 0 0 0 0 0 0 0 0 0 0 0 0 0 0 0 0 0 0 0 0 0 0 0 0 0 0 -0
0 0 0 0 0 0 0 0 0 0 0 0 0 0 0 0 0 0 0 0 0 0 0 0 0 0 0 0 0 0 0 0 0 0 0 0 0 0
0 0 0 0 0 0 0 0 0 0 0 0 0 0 0 0 0 0 0 0 0 0 0 0 0 0 0 0 0 0 0 0 0 0 0 -0 -0 0
0 0 0 0 0 0 0 0 0 0 0 0 0 0 0 0 0 0 0 0 0 0 0 0 0 0 0 0 0 0 0 0 0 0 0 0 0 0
Wind_Speed_500mb
34 29 29 28 30 31 32 34 36 32 48 45 45 47 58 64 67 68 66 65 63 60 58 56 52 52 54 54 56 55 57 59 58 62 63 62 62 61
33 31 32 32 34 34 34 36 39 41 42 47 55 57 60 65 64 64 65 65 61 55 57 60 54 52 53 54 54 59 61 60 62 60 61 62 62 64
32 29 31 31 34 37 37 38 40 42 52 58 59 58 61 63 62 63 64 63 61 61 56 54 51 52 55 55 57 57 59 58 58 58 59 61 64 64
30 34 35 32 37 40 40 40 41 44 52 60 61 60 62 63 65 68 66 62 60 55 53 52 52 54 53 55 56 54 54 57 58 61 62 64 67 66
29 32 34 38 41 41 41 41 43 46 49 57 60 61 64 65 70 72 73 70 63 56 53 57 54 46 48 49 53 57 60 59 58 60 64 65 65 66
31 32 38 40 40 40 40 42 43 45 47 51 57 59 64 69 69 78 81 69 66 61 61 51 45 53 58 53 54 53 56 59 62 64 63 62 62 63
31 35 39 38 39 40 41 41 41 42 47 49 55 61 66 69 75 75 73 68 72 70 65 61 69 69 62 63 62 61 61 61 61 58 60 65 67 69
33 36 37 39 40 40 38 34 36 39 43 50 54 60 68 73 74 65 63 70 79 66 76 83 75 78 74 67 57 56 60 62 62 63 64 66 66 64
32 32 37 39 40 39 38 36 36 39 39 43 56 63 70 67 58 62 62 70 77 79 76 94 85 83 63 63 61 64 63 57 56 60 61 60 62 61
29 34 37 36 36 34 35 36 37 41 45 53 60 63 58 53 58 62 71 77 76 71 67 90 84 76 78 77 72 57 47 49 56 56 56 59 60 63
30 33 35 35 36 35 31 36 46 53 51 51 51 49 48 52 54 58 63 63 76 78 75 58 79 86 89 86 69 64 67 66 64 65 65 65 67 67
31 32 37 38 30 24 33 44 53 52 45 48 49 50 49 47 48 49 52 57 63 77 57 63 79 73 64 76 77 85 78 74 69 67 65 62 61 63
38 39 38 33 30 31 35 42 42 37 48 53 51 49 48 51 50 47 48 54 63 70 75 64 78 81 68 90 95 89 84 82 79 74 66 61 57 53
37 39 39 37 33 38 40 37 37 38 43 44 47 50 52 52 49 50 53 55 58 67 67 64 73 73 76 85 94 93 88 85 80 76 64 51 49 50
39 40 35 38 43 41 38 37 37 37 39 43 48 51 53 53 52 53 56 60 67 67 62 55 60 63 65 76 89 92 91 88 71 64 70 65 62 57
36 36 38 46 45 41 37 32 31 32 37 43 49 51 51 51 55 59 64 64 70 70 63 58 56 58 68 73 77 89 84 84 80 70 70 71 66 63
36 42 43 41 37 32 29 28 27 31 36 41 45 46 47 55 60 59 59 63 69 74 75 65 61 64 67 70 71 73 74 75 75 78 77 79 71 65
35 36 36 35 34 33 31 30 30 33 38 41 40 42 51 57 60 60 61 65 72 73 74 74 76 77 77 78 59 63 77 82 82 82 79 79 88 75
32 31 32 32 32 30 31 34 37 38 41 39 38 45 51 52 59 64 66 71 76 75 77 78 79 76 76 77 87 65 67 81 77 76 76 74 78 80
28 28 27 28 29 31 34 37 40 42 41 36 39 46 45 57 66 68 68 70 73 77 82 78 76 76 72 81 92 90 72 66 77 78 77 76 76 74
25 24 24 26 29 33 36 40 42 43 41 37 41 45 49 61 68 68 68 67 70 76 83 84 79 75 79 80 75 89 83 68 66 70 72 75 75 70
25 24 23 25 30 35 38 42 43 44 35 37 44 46 52 63 70 69 69 76 79 79 82 87 86 83 80 79 83 87 88 82 66 60 55 51 57 52
24 23 23 27 33 38 41 43 47 44 33 39 46 46 55 68 70 72 75 80 83 84 83 84 83 81 80 80 77 83 85 81 76 76 65 43 43 45
Wind_Direction_500mb
231 246 260 267 275 280 284 286 285 289 297 298 301 304 304 304 307 309 309 309 308 304 299 295 293 292 292 290 288 287 284 283 282 280 278 279 277 278
236 248 263 276 277 282 286 287 288 287 283 293 297 298 299 302 305 308 308 309 309 304 301 297 295 294 291 291 287 283 284 282 281 280 279 278 277 277
238 252 263 272 281 281 284 287 287 289 289 293 297 301 303 306 308 307 310 311 308 305 303 300 296 294 292 288 286 285 283 281 280 279 278 277 277 277
245 267 270 282 280 280 284 286 289 291 292 296 300 306 308 312 313 314 314 311 310 311 307 304 300 297 293 289 286 284 282 280 280 279 278 278 278 278
252 256 274 282 279 279 282 286 290 291 293 297 303 309 310 313 315 315 318 319 317 315 311 310 310 303 293 291 288 283 281 278 279 281 281 279 277 275
259 270 275 272 277 280 283 288 291 295 297 299 302 306 308 312 315 320 318 318 317 318 317 314 315 311 309 307 302 298 291 288 285 282 279 278 276 273
269 277 273 277 282 285 289 295 297 298 299 299 300 302 305 314 315 316 313 318 317 322 322 320 317 316 316 312 307 298 294 291 286 282 279 278 276 274
276 273 276 281 286 287 284 279 284 294 292 291 299 301 306 310 312 312 316 316 313 319 319 313 317 315 316 311 307 306 304 299 288 281 279 277 275 275
267 274 282 287 291 293 292 291 292 288 284 291 294 301 303 307 311 312 312 308 304 311 314 310 315 314 317 312 312 310 306 298 291 284 280 277 277 276
283 292 291 297 301 300 303 303 297 294 298 299 300 301 304 311 309 306 301 300 302 305 312 307 315 314 316 314 315 315 313 308 302 293 285 280 277 276
298 299 302 306 307 304 303 299 298 302 304 301 296 297 297 300 302 301 303 303 304 309 312 302 316 316 315 314 316 317 315 313 307 299 291 283 279 278
303 306 307 309 310 311 305 302 301 306 309 304 306 305 305 305 307 304 303 302 306 311 310 307 311 315 314 309 309 311 310 310 308 305 301 293 283 277
306 309 311 312 310 310 307 298 302 311 297 300 305 309 313 314 314 311 306 304 304 301 311 309 304 306 295 303 306 310 312 313 312 309 305 299 293 277
309 313 312 312 311 307 307 310 307 300 304 307 311 316 318 319 319 316 312 308 305 304 309 307 301 304 304 303 302 311 311 311 311 309 308 304 295 289
310 308 306 305 310 312 312 308 305 307 308 310 314 319 321 322 321 320 317 316 310 310 314 315 311 311 304 300 301 306 311 313 311 308 309 307 301 294
313 311 309 313 313 311 308 307 304 307 313 317 317 320 323 325 328 328 324 324 319 322 326 327 324 318 312 309 308 307 312 302 313 313 311 307 302 295
307 308 310 309 311 312 311 312 313 315 317 319 319 322 327 329 330 331 331 332 328 327 326 332 330 325 320 316 310 310 310 308 314 313 310 307 301 299
310 313 315 316 318 320 322 321 322 323 323 324 325 329 332 333 334 341 338 333 331 331 329 333 334 332 329 322 308 302 310 308 314 313 308 299 300 301
315 317 317 317 320 322 322 324 326 328 327 327 328 333 334 336 338 337 337 335 333 332 332 335 336 331 315 307 323 312 296 302 305 303 305 294 287 297
313 316 318 321 324 323 323 323 326 328 328 327 331 333 336 338 338 337 338 338 338 338 336 337 337 335 315 307 309 323 330 307 306 305 308 307 302 301
318 320 323 325 324 323 323 324 326 327 327 328 329 331 337 338 339 339 339 339 337 336 334 336 337 336 329 330 313 321 330 335 324 311 309 301 300 303
317 322 327 326 325 326 325 325 327 328 323 323 325 333 333 337 338 339 340 338 336 333 332 335 336 336 333 323 318 322 330 336 339 334 330 323 302 281
315 320 326 328 329 329 327 327 329 329 319 321 329 334 334 335 337 339 338 338 336 334 330 326 328 330 324 325 322 322 331 337 339 338 338 341 326 312
Wind_Speed_850mb
34 29 29 28 30 31 32 34 36 32 48 45 45 47 58 64 67 68 66 65 63 60 58 56 52 52 54 54 56 55 57 59 58 62 63 62 62 61
33 31 32 32 34 34 34 36 39 41 42 47 55 57 60 65 64 64 65 65 61 55 57 60 54 52 53 54 54 59 61 60 62 60 61 62 62 64
32 29 31 31 34 37 37 38 40 42 52 58 59 58 61 63 62 63 64 63 61 61 56 54 51 52 55 55 57 57 59 58 58 58 59 61 64 64
30 34 35 32 37 40 40 40 41 44 52 60 61 60 62 63 65 68 66 62 60 55 53 52 52 54 53 55 56 54 54 57 58 61 62 64 67 66
29 32 34 38 41 41 41 41 43 46 49 57 60 61 64 65 70 72 73 70 63 56 53 57 54 46 48 49 53 57 60 59 58 60 64 65 65 66
31 32 38 40 40 40 40 42 43 45 47 51 57 59 64 69 69 78 81 69 66 61 61 51 45 53 58 53 54 53 56 59 62 64 63 62 62 63
31 35 39 38 39 40 41 41 41 42 47 49 55 61 66 69 75 75 73 68 72 70 65 61 69 69 62 63 62 61 61 61 61 58 60 65 67 69
33 36 37 39 40 40 38 34 36 39 43 50 54 60 68 73 74 65 63 70 79 66 76 83 75 78 74 67 57 56 60 62 62 63 64 66 66 64
32 32 37 39 40 39 38 36 36 39 39 43 56 63 70 67 58 62 62 70 77 79 76 94 85 83 63 63 61 64 63 57 56 60 61 60 62 61
29 34 37 36 36 34 35 36 37 41 45 53 60 63 58 53 58 62 71 77 76 71 67 90 84 76 78 77 72 57 47 49 56 56 56 59 60 63
30 33 35 35 36 35 31 36 46 53 51 51 51 49 48 52 54 58 63 63 76 78 75 58 79 86 89 86 69 64 67 66 64 65 65 65 67 67
31 32 37 38 30 24 33 44 53 52 45 48 49 50 49 47 48 49 52 57 63 77 57 63 79 73 64 76 77 85 78 74 69 67 65 62 61 63
38 39 38 33 30 31 35 42 42 37 48 53 51 49 48 51 50 47 48 54 63 70 75 64 78 81 68 90 95 89 84 82 79 74 66 61 57 53
37 39 39 37 33 38 40 37 37 38 43 44 47 50 52 52 49 50 53 55 58 67 67 64 73 73 76 85 94 93 88 85 80 76 64 51 49 50
39 40 35 38 43 41 38 37 37 37 39 43 48 51 53 53 52 53 56 60 67 67 62 55 60 63 65 76 89 92 91 88 71 64 70 65 62 57
36 36 38 46 45 41 37 32 31 32 37 43 49 51 51 51 55 59 64 64 70 70 63 58 56 58 68 73 77 89 84 84 80 70 70 71 66 63
36 42 43 41 37 32 29 28 27 31 36 41 45 46 47 55 60 59 59 63 69 74 75 65 61 64 67 70 71 73 74 75 75 78 77 79 71 65
35 36 36 35 34 33 31 30 30 33 38 41 40 42 51 57 60 60 61 65 72 73 74 74 76 77 77 78 59 63 77 82 82 82 79 79 88 75
32 31 32 32 32 30 31 34 37 38 41 39 38 45 51 52 59 64 66 71 76 75 77 78 79 76 76 77 87 65 67 81 77 76 76 74 78 80
28 28 27 28 29 31 34 37 40 42 41 36 39 46 45 57 66 68 68 70 73 77 82 78 76 76 72 81 92 90 72 66 77 78 77 76 76 74
25 24 24 26 29 33 36 40 42 43 41 37 41 45 49 61 68 68 68 67 70 76 83 84 79 75 79 80 75 89 83 68 66 70 72 75 75 70
25 24 23 25 30 35 38 42 43 44 35 37 44 46 52 63 70 69 69 76 79 79 82 87 86 83 80 79 83 87 88 82 66 60 55 51 57 52
24 23 23 27 33 38 41 43 47 44 33 39 46 46 55 68 70 72 75 80 83 84 83 84 83 81 80 80 77 83 85 81 76 76 65 43 43 45
Wind_Direction_850mb
231 246 260 267 275 280 284 286 285 289 297 298 301 304 304 304 307 309 309 309 308 304 299 295 293 292 292 290 288 287 284 283 282 280 278 279 277 278
236 248 263 276 277 282 286 287 288 287 283 293 297 298 299 302 305 308 308 309 309 304 301 297 295 294 291 291 287 283 284 282 281 280 279 278 277 277
238 252 263 272 281 281 284 287 287 289 289 293 297 301 303 306 308 307 310 311 308 305 303 300 296 294 292 288 286 285 283 281 280 279 278 277 277 277
245 267 270 282 280 280 284 286 289 291 292 296 300 306 308 312 313 314 314 311 310 311 307 304 300 297 293 289 286 284 282 280 280 279 278 278 278 278
252 256 274 282 279 279 282 286 290 291 293 297 303 309 310 313 315 315 318 319 317 315 311 310 310 303 293 291 288 283 281 278 279 281 281 279 277 275
259 270 275 272 277 280 283 288 291 295 297 299 302 306 308 312 315 320 318 318 317 318 317 314 315 311 309 307 302 298 291 288 285 282 279 278 276 273
269 277 273 277 282 285 289 295 297 298 299 299 300 302 305 314 315 316 313 318 317 322 322 320 317 316 316 312 307 298 294 291 286 282 279 278 276 274
276 273 276 281 286 287 284 279 284 294 292 291 299 301 306 310 312 312 316 316 313 319 319 313 317 315 316 311 307 306 304 299 288 281 279 277 275 275
267 274 282 287 291 293 292 291 292 288 284 291 294 301 303 307 311 312 312 308 304 311 314 310 315 314 317 312 312 310 306 298 291 284 280 277 277 276
283 292 291 297 301 300 303 303 297 294 298 299 300 301 304 311 309 306 301 300 302 305 312 307 315 314 316 314 315 315 313 308 302 293 285 280 277 276
298 299 302 306 307 304 303 299 298 302 304 301 296 297 297 300 302 301 303 303 304 309 312 302 316 316 315 314 316 317 315 313 307 299 291 283 279 278
303 306 307 309 310 311 305 302 301 306 309 304 306 305 305 305 307 304 303 302 306 311 310 307 311 315 314 309 309 311 310 310 308 305 301 293 283 277
306 309 311 312 310 310 307 298 302 311 297 300 305 309 313 314 314 311 306 304 304 301 311 309 304 306 295 303 306 310 312 313 312 309 305 299 293 277
309 313 312 312 311 307 307 310 307 300 304 307 311 316 318 319 319 316 312 308 305 304 309 307 301 304 304 303 302 311 311 311 311 309 308 304 295 289
310 308 306 305 310 312 312 308 305 307 308 310 314 319 321 322 321 320 317 316 310 310 314 315 311 311 304 300 301 306 311 313 311 308 309 307 301 294
313 311 309 313 313 311 308 307 304 307 313 317 317 320 323 325 328 328 324 324 319 322 326 327 324 318 312 309 308 307 312 302 313 313 311 307 302 295
307 308 310 309 311 312 311 312 313 315 317 319 319 322 327 329 330 331 331 332 328 327 326 332 330 325 320 316 310 310 310 308 314 313 310 307 301 299
310 313 315 316 318 320 322 321 322 323 323 324 325 329 332 333 334 341 338 333 331 331 329 333 334 332 329 322 308 302 310 308 314 313 308 299 300 301
315 317 317 317 320 322 322 324 326 328 327 327 328 333 334 336 338 337 337 335 333 332 332 335 336 331 315 307 323 312 296 302 305 303 305 294 287 297
313 316 318 321 324 323 323 323 326 328 328 327 331 333 336 338 338 337 338 338 338 338 336 337 337 335 315 307 309 323 330 307 306 305 308 307 302 301
318 320 323 325 324 323 323 324 326 327 327 328 329 331 337 338 339 339 339 339 337 336 334 336 337 336 329 330 313 321 330 335 324 311 309 301 300 303
317 322 327 326 325 326 325 325 327 328 323 323 325 333 333 337 338 339 340 338 336 333 332 335 336 336 333 323 318 322 330 336 339 334 330 323 302 281
315 320 326 328 329 329 327 327 329 329 319 321 329 334 334 335 337 339 338 338 336 334 330 326 328 330 324 325 322 322 331 337 339 338 338 341 326 312